Location: PSU-Greenbush Astrophysical Observatory
(37.5140°N, 94.9880°W)
Time: 14:27:29
(UTC-06:00)

Transit 2A - All Passes

Search period start: 24 January 2020 00:00
Search period end: 03 February 2020 00:00
Orbit: 601 x 958 km, 66.7° (Epoch: 24 January)

Date Brightness Start Highest point End Pass type
(mag) Time Alt. Az. Time Alt. Az. Time Alt. Az.
24 Jan - 04:27:16 10° N 04:31:02 22° NE 04:35:03 10° ESE visible
24 Jan - 06:09:37 10° NW 06:14:19 45° WSW 06:19:27 10° S visible
24 Jan - 19:06:25 10° SSE 19:09:53 22° ESE 19:13:15 10° ENE visible
24 Jan - 20:48:53 10° WSW 20:52:49 30° NW 20:56:40 10° N visible
25 Jan - 03:53:50 10° NNE 03:56:43 16° NE 03:59:45 10° E visible
25 Jan - 05:35:21 10° NNW 05:40:14 69° WSW 05:45:38 10° SSE visible
25 Jan - 18:33:41 10° SE 18:35:55 14° ESE 18:38:07 10° ENE visible
25 Jan - 20:14:19 10° SW 20:18:36 47° WNW 20:22:49 10° NNE visible
26 Jan - 03:21:13 10° NNE 03:22:20 11° NE 03:23:27 10° ENE visible
26 Jan - 05:01:13 10° NNW 05:06:07 79° ENE 05:11:33 10° SSE visible
26 Jan - 06:47:13 10° W 06:48:47 11° WSW 06:50:25 10° WSW visible
26 Jan - 19:40:01 10° SSW 19:44:28 78° WNW 19:48:49 10° NNE visible
27 Jan - 04:27:13 10° NNW 04:31:59 52° ENE 04:37:13 10° SE visible
27 Jan - 06:11:27 10° WNW 06:14:50 18° WSW 06:18:25 10° SSW visible
27 Jan - 19:05:57 10° SSW 19:10:22 65° ESE 19:14:40 10° NE visible
27 Jan - 20:51:57 10° WNW 20:53:54 13° NW 20:55:52 10° NNW visible
28 Jan - 03:53:19 10° N 03:57:47 35° ENE 04:02:39 10° ESE visible
28 Jan - 05:36:37 10° NW 05:40:49 27° WSW 05:45:23 10° SSW visible
28 Jan - 18:32:10 10° S 18:36:19 39° ESE 18:40:21 10° NE visible
28 Jan - 20:16:27 10° W 20:19:34 19° NW 20:22:40 10° N visible
29 Jan - 03:19:35 10° N 03:23:33 24° NE 03:27:49 10° ESE visible
29 Jan - 05:02:06 10° NW 05:06:47 41° WSW 05:11:55 10° S visible
29 Jan - 17:58:43 10° SSE 18:02:18 24° ESE 18:05:49 10° NE visible
29 Jan - 19:41:29 10° WSW 19:45:17 28° NW 19:49:02 10° N visible
30 Jan - 02:46:03 10° N 02:49:15 17° NE 02:52:37 10° E night (unlit)
30 Jan - 04:27:48 10° NW 04:32:43 64° WSW 04:38:08 10° SSE visible
30 Jan - 17:25:47 10° SE 17:28:20 15° ESE 17:30:50 10° ENE daylight
30 Jan - 19:06:52 10° SW 19:11:04 43° WNW 19:15:13 10° NNE visible
31 Jan - 02:13:03 10° NNE 02:14:53 12° NE 02:16:45 10° ENE night (unlit)
31 Jan - 03:53:39 10° NNW 03:58:36 85° ENE 04:04:06 10° SSE visible
31 Jan - 05:40:23 10° W 05:41:14 10° WSW 05:42:06 10° WSW visible
31 Jan - 18:32:30 10° SW 18:36:55 70° WNW 18:41:14 10° NNE visible
01 Feb - 03:19:36 10° NNW 03:24:28 57° ENE 03:29:50 10° SE night (unlit)
01 Feb - 05:04:04 10° WNW 05:07:17 17° WSW 05:10:41 10° SW night (unlit)
01 Feb - 17:58:23 10° SSW 18:02:48 72° ESE 18:07:07 10° NNE daylight
01 Feb - 19:44:51 10° WNW 19:46:25 12° NW 19:47:59 10° NNW visible
02 Feb - 02:45:41 10° NNW 02:50:17 38° ENE 02:55:19 10° SE night (unlit)
02 Feb - 04:29:08 10° NW 04:33:18 25° WSW 04:37:46 10° SSW night (unlit)
02 Feb - 17:24:32 10° S 17:28:45 43° ESE 17:32:51 10° NE daylight
02 Feb - 19:09:08 10° W 19:12:03 17° NW 19:14:58 10° N visible
